FW6754 Weather Reports


Display with metric or nautical units.
time (UTC)temp
F
wind
direction
speed
MPH
gust
MPH
rain 1hr
in
rain 24hr
in
rain mn
in
humidity
%
barometer
mb
20260504223912 55 0.0 0.0 0.00 0.00 0.00 10 1012.2
20260504223412 55 0.0 0.0 0.00 0.00 0.00 10 1012.3
20260504222912 56 0.0 0.0 0.00 0.00 0.00 10 1012.4
20260504222412 55 0.0 0.0 0.00 0.00 0.00 10 1012.5
20260504221911 55 0.0 0.0 0.00 0.00 0.00 10 1012.6
20260504220912 55 0.0 0.0 0.00 0.00 0.00 10 1012.7
20260504220412 55 0.0 0.0 0.00 0.00 0.00 10 1012.8
20260504215912 55 0.0 0.0 0.00 0.00 0.00 10 1012.9
20260504215412 55 0.0 0.0 0.00 0.00 0.00 10 1013.0
20260504214912 55 0.0 0.0 0.00 0.00 0.00 10 1013.1
20260504214412 55 0.0 0.0 0.00 0.00 0.00 10 1013.2
20260504213911 55 0.0 0.0 0.00 0.00 0.00 10 1013.1
20260504213412 55 0.0 0.0 0.00 0.00 0.00 10 1013.1
20260504212912 55 0.0 0.0 0.00 0.00 0.00 10 1013.2
20260504212413 55 0.0 0.0 0.00 0.00 0.00 10 1013.1
20260504211912 55 0.0 0.0 0.00 0.00 0.00 10 1013.1
20260504211411 55 0.0 0.0 0.00 0.00 0.00 10 1013.3
20260504210412 55 0.0 0.0 0.00 0.00 0.00 10 1013.3
20260504205912 55 0.0 0.0 0.00 0.00 0.00 10 1013.3
20260504205412 55 0.0 0.0 0.00 0.00 0.00 10 1013.4
20260504204912 55 0.0 0.0 0.00 0.00 0.00 10 1013.4
20260504204412 55 0.0 0.0 0.00 0.00 0.00 10 1013.4
20260504203912 55 0.0 0.0 0.00 0.00 0.00 10 1013.5
20260504203411 55 0.0 0.0 0.00 0.00 0.00 10 1013.3
20260504202412 55 0.0 0.0 0.00 0.00 0.00 10 1013.3
20260504201912 55 0.0 0.0 0.00 0.00 0.00 10 1013.4
20260504201412 56 0.0 0.0 0.00 0.00 0.00 10 1013.4
20260504200411 55 0.0 0.0 0.00 0.00 0.00 10 1013.4
20260504195412 56 0.0 0.0 0.00 0.00 0.00 10 1013.4
20260504194911 56 0.0 0.0 0.00 0.00 0.00 10 1013.3
20260504194412 56 0.0 0.0 0.00 0.00 0.00 10 1013.4
20260504193912 56 0.0 0.0 0.00 0.00 0.00 10 1013.4
20260504193412 56 0.0 0.0 0.00 0.00 0.00 10 1013.4
20260504192412 56 0.0 0.0 0.00 0.00 0.00 10 1013.2
20260504191912 56 0.0 0.0 0.00 0.00 0.00 10 1013.2
20260504191413 56 0.0 0.0 0.00 0.00 0.00 10 1013.2
20260504190911 56 0.0 0.0 0.00 0.00 0.00 10 1013.3
20260504185912 57 0.0 0.0 0.00 0.00 0.00 10 1012.9
20260504185413 57 0.0 0.0 0.00 0.00 0.00 10 1013.0
20260504184911 57 0.0 0.0 0.00 0.00 0.00 10 1012.9
20260504183912 58 0.0 0.0 0.00 0.00 0.00 10 1012.9
20260504183412 59 0.0 0.0 0.00 0.00 0.00 10 1012.9
20260504182911 59 0.0 0.0 0.00 0.00 0.00 10 1012.9
20260504182411 59 0.0 0.0 0.00 0.00 0.00 10 1012.8
20260504181912 59 0.0 0.0 0.00 0.00 0.00 10 1012.9
20260504181412 60 0.0 0.0 0.00 0.00 0.00 10 1012.8
20260504180912 60 0.0 0.0 0.00 0.00 0.00 10 1012.9
20260504180411 61 0.0 0.0 0.00 0.00 0.00 10 1013.0
20260504175912 62 0.0 0.0 0.00 0.00 0.00 10 1013.0
20260504175412 63 0.0 0.0 0.00 0.00 0.00 10 1012.9
20260504174912 63 0.0 0.0 0.00 0.00 0.00 10 1012.8
20260504174411 64 0.0 0.0 0.00 0.00 0.00 10 1012.7
20260504173412 65 0.0 0.0 0.00 0.00 0.00 10 1012.6
20260504172911 65 0.0 0.0 0.00 0.00 0.00 10 1012.7
20260504172411 66 0.0 0.0 0.00 0.00 0.00 10 1012.7
20260504171912 65 0.0 0.0 0.00 0.00 0.00 10 1012.7
20260504171411 66 0.0 0.0 0.00 0.00 0.00 10 1012.6
20260504150912 64 0.0 0.0 0.00 0.00 0.00 10 1013.1
20260504140912 66 0.0 0.0 0.00 0.00 0.00 10 1013.5
20260504140411 66 0.0 0.0 0.00 0.00 0.00 10 1013.6
20260504130412 64 0.0 0.0 0.00 0.00 0.00 10 1014.0
20260504110412 59 0.0 0.0 0.00 0.00 0.00 10 1014.9
20260504100413 62 0.0 0.0 0.00 0.00 0.00 10 1015.0
20260504081912 58 0.0 0.0 0.00 0.00 0.00 10 1015.2
20260504081411 58 0.0 0.0 0.00 0.00 0.00 10 1015.2
20260504080911 58 0.0 0.0 0.00 0.00 0.00 10 1015.3
20260504080412 58 0.0 0.0 0.00 0.00 0.00 10 1015.4
20260504070412 56 0.0 0.0 0.00 0.00 0.00 10 1015.2
20260504050411 53 0.0 0.0 0.00 0.00 0.00 10 1015.0
20260504045412 53 0.0 0.0 0.00 0.00 0.00 10 1015.0
20260504044912 53 0.0 0.0 0.00 0.00 0.00 10 1015.0
20260504044412 53 0.0 0.0 0.00 0.00 0.00 10 1015.0
20260504043412 53 0.0 0.0 0.00 0.00 0.00 10 1014.9
20260504042912 53 0.0 0.0 0.00 0.00 0.00 10 1015.1
20260504042412 53 0.0 0.0 0.00 0.00 0.00 10 1015.0
20260504041912 53 0.0 0.0 0.00 0.00 0.00 10 1015.0
20260504041412 53 0.0 0.0 0.00 0.00 0.00 10 1015.1
20260504040911 53 0.0 0.0 0.00 0.00 0.00 10 1015.0
20260504040412 53 0.0 0.0 0.00 0.00 0.00 10 1015.1
20260504035912 53 0.0 0.0 0.00 0.00 0.00 10 1015.1
20260504035412 53 0.0 0.0 0.00 0.00 0.00 10 1015.2
20260504034912 53 0.0 0.0 0.00 0.00 0.00 10 1015.3
20260504034412 54 0.0 0.0 0.00 0.00 0.00 10 1015.2
20260504033911 54 0.0 0.0 0.00 0.00 0.00 10 1015.2
20260504032911 54 0.0 0.0 0.00 0.00 0.00 10 1015.2
20260504032412 54 0.0 0.0 0.00 0.00 0.00 10 1015.2
20260504031913 54 0.0 0.0 0.00 0.00 0.00 10 1015.2
20260504031412 54 0.0 0.0 0.00 0.00 0.00 10 1015.1
20260504030412 54 0.0 0.0 0.00 0.00 0.00 10 1015.1
20260504025911 54 0.0 0.0 0.00 0.00 0.00 10 1015.2
20260504025411 54 0.0 0.0 0.00 0.00 0.00 10 1015.2
20260504024912 54 0.0 0.0 0.00 0.00 0.00 10 1015.2
20260504024411 54 0.0 0.0 0.00 0.00 0.00 10 1015.1
20260504023911 54 0.0 0.0 0.00 0.00 0.00 10 1015.2
20260504023411 54 0.0 0.0 0.00 0.00 0.00 10 1015.1
20260504022912 54 0.0 0.0 0.00 0.00 0.00 10 1015.0
20260504022411 54 0.0 0.0 0.00 0.00 0.00 10 1015.0
20260504021911 54 0.0 0.0 0.00 0.00 0.00 10 1015.0
20260504021411 54 0.0 0.0 0.00 0.00 0.00 10 1015.0
20260504020411 54 0.0 0.0 0.00 0.00 0.00 10 1015.0
20260504015912 54 0.0 0.0 0.00 0.00 0.00 10 1015.1
20260504015412 54 0.0 0.0 0.00 0.00 0.00 10 1015.0
20260504014912 54 0.0 0.0 0.00 0.00 0.00 10 1015.0
20260504014411 54 0.0 0.0 0.00 0.00 0.00 10 1014.8
20260504013911 54 0.0 0.0 0.00 0.00 0.00 10 1014.9
20260504013411 54 0.0 0.0 0.00 0.00 0.00 10 1014.8
20260504012412 54 0.0 0.0 0.00 0.00 0.00 10 1014.8
20260504011911 54 0.0 0.0 0.00 0.00 0.00 10 1014.8
20260504011412 55 0.0 0.0 0.00 0.00 0.00 10 1014.9
20260504010912 55 0.0 0.0 0.00 0.00 0.00 10 1014.9
20260504010412 55 0.0 0.0 0.00 0.00 0.00 10 1015.0
20260504005912 55 0.0 0.0 0.00 0.00 0.00 10 1015.2
20260504005412 55 0.0 0.0 0.00 0.00 0.00 10 1015.0
20260504004912 55 0.0 0.0 0.00 0.00 0.00 10 1015.0
20260504004412 55 0.0 0.0 0.00 0.00 0.00 10 1015.1
20260504003912 55 0.0 0.0 0.00 0.00 0.00 10 1015.1
20260504003411 55 0.0 0.0 0.00 0.00 0.00 10 1015.1
20260504002912 55 0.0 0.0 0.00 0.00 0.00 10 1015.2
20260504002413 55 0.0 0.0 0.00 0.00 0.00 10 1015.3
20260504001911 55 0.0 0.0 0.00 0.00 0.00 10 1015.4
20260504001411 56 0.0 0.0 0.00 0.00 0.00 10 1015.5
20260504000911 56 0.0 0.0 0.00 0.00 0.00 10 1015.5
20260504000412 56 0.0 0.0 0.00 0.00 0.00 10 1015.5
20260503235912 56 0.0 0.0 0.00 0.00 0.00 10 1015.5
20260503235411 56 0.0 0.0 0.00 0.00 0.00 10 1015.5
20260503234912 56 0.0 0.0 0.00 0.00 0.00 10 1015.6
20260503234412 56 0.0 0.0 0.00 0.00 0.00 10 1015.6
20260503233911 56 0.0 0.0 0.00 0.00 0.00 10 1015.6
20260503233411 56 0.0 0.0 0.00 0.00 0.00 10 1015.5
20260503232912 56 0.0 0.0 0.00 0.00 0.00 10 1015.5
20260503232412 56 0.0 0.0 0.00 0.00 0.00 10 1015.5
20260503231912 57 0.0 0.0 0.00 0.00 0.00 10 1015.5
20260503231412 57 0.0 0.0 0.00 0.00 0.00 10 1015.5
20260503230912 57 0.0 0.0 0.00 0.00 0.00 10 1015.5
20260503230412 56 0.0 0.0 0.00 0.00 0.00 10 1015.4
20260503225912 56 0.0 0.0 0.00 0.00 0.00 10 1015.3
20260503225411 56 0.0 0.0 0.00 0.00 0.00 10 1015.4
20260503224412 56 0.0 0.0 0.00 0.00 0.00 10 1015.4